カタログに戻る

STARLINK-30186

運用中通信VLEO
NORAD 57470·PAYLOAD·🇺🇸 United States

打ち上げ Jul 28, 2023 から Cape Canaveral Space Force Station

Loading…

次のパス (今後24時間)

TLE

最新Source: CelesTrak SupGP

元期: Sep 15, 2026, 03:28 UTC

1 57470C 23107P   26258.14493056  .00095370  00000+0  81854-3 0  2581
2 57470  42.9996 329.8080 0003829  18.0961 104.1796 15.68380678    12

AllMySatでSTARLINK-30186をリアルタイム追跡

Download on the App Store